This is the latest recevied weather packets stored in our database for station/object I8ZSE-10. If no packets are shown the sender has not sent any weather packets the latest 10 day(s).
| Time | Temp. | Humidity | Pressure | Rain* | Wind** | Luminosity | Snow |
|---|---|---|---|---|---|---|---|
| 1788405030 | 20.56° C | 64% | - | 0 mm | - | - | - |
| 1788404430 | 21.67° C | 63% | - | 0 mm | - | - | - |
| 1788403830 | 20.56° C | 64% | - | 0 mm | - | - | - |
| 1788403230 | 21.11° C | 60% | - | 0 mm | - | - | - |
| 1788402330 | 21.67° C | 60% | - | 0 mm | - | - | - |
| 1788401130 | 22.22° C | 59% | - | 0 mm | - | - | - |
| 1788400530 | 21.67° C | 60% | - | 0 mm | - | - | - |
| 1788399930 | 22.22° C | 56% | - | 0 mm | - | - | - |
| 1788399330 | 22.22° C | 56% | - | 0 mm | - | - | - |
| 1788398730 | 22.78° C | 55% | - | 0 mm | - | - | - |
| 1788398130 | 22.22° C | 57% | - | 0 mm | - | - | - |
| 1788397530 | 22.22° C | 58% | - | 0 mm | - | - | - |
| 1788396930 | 22.22° C | 62% | - | 0 mm | - | - | - |
| 1788396330 | 22.78° C | 59% | - | 0 mm | - | - | - |
| 1788395730 | 23.33° C | 59% | - | 0 mm | - | - | - |
| 1788395130 | 22.78° C | 60% | - | 0 mm | - | - | - |
| 1788394530 | 22.78° C | 63% | - | 0 mm | - | - | - |
| 1788393930 | 22.78° C | 64% | - | 0 mm | - | - | - |
| 1788393330 | 22.78° C | 64% | - | 0 mm | - | - | - |
| 1788392730 | 23.33° C | 61% | - | 0 mm | - | - | - |
| 1788392130 | 23.33° C | 62% | - | 0 mm | - | - | - |
| 1788391530 | 23.33° C | 63% | - | 0 mm | - | - | - |
| 1788390930 | 23.33° C | 64% | - | 0 mm | - | - | - |
| 1788390330 | 23.33° C | 66% | - | 0 mm | - | - | - |
| 1788389730 | 24.44° C | 63% | - | 0 mm | - | - | - |
* Rain latest hour (hover to see other rain measurements)
** Current wind speed in m/s (hover to see current wind gust speed)